TimeEST,TemperatureF,Dew PointF,Humidity,Sea Level PressureIn,VisibilityMPH,Wind Direction,Wind SpeedMPH,Gust SpeedMPH,PrecipitationIn,Events,Conditions,WindDirDegrees,DateUTC
12:53 AM,53.1,51.1,93,30.25,10.0,Calm,Calm,-,N/A,,Partly Cloudy,0,2012-12-05 05:53:00
1:53 AM,48.9,48.0,97,30.24,10.0,WNW,3.5,-,N/A,,Partly Cloudy,290,2012-12-05 06:53:00
2:53 AM,53.1,51.1,93,30.22,10.0,Calm,Calm,-,N/A,,Partly Cloudy,0,2012-12-05 07:53:00
3:50 AM,48.2,46.4,93,30.22,4.0,Calm,Calm,-,N/A,,Partly Cloudy,0,2012-12-05 08:50:00
3:53 AM,48.0,46.9,96,30.22,4.0,NNW,3.5,-,N/A,,Partly Cloudy,330,2012-12-05 08:53:00
4:10 AM,48.2,46.4,93,30.21,2.0,Calm,Calm,-,N/A,,Mist,0,2012-12-05 09:10:00
4:44 AM,48.2,48.2,100,30.20,3.0,Calm,Calm,-,N/A,,Mist,0,2012-12-05 09:44:00
4:53 AM,48.9,48.0,97,30.19,3.0,Calm,Calm,-,N/A,,Mist,0,2012-12-05 09:53:00
5:48 AM,48.2,46.4,93,30.20,3.0,Calm,Calm,-,N/A,,Mostly Cloudy,0,2012-12-05 10:48:00
5:53 AM,48.9,46.9,93,30.20,5.0,Calm,Calm,-,N/A,,Mostly Cloudy,0,2012-12-05 10:53:00
6:35 AM,48.2,46.4,93,30.20,10.0,Calm,Calm,-,N/A,,Scattered Clouds,0,2012-12-05 11:35:00
6:53 AM,48.9,46.9,93,30.21,10.0,Calm,Calm,-,N/A,,Mostly Cloudy,0,2012-12-05 11:53:00
7:53 AM,48.9,46.9,93,30.23,3.0,Calm,Calm,-,N/A,,Mostly Cloudy,0,2012-12-05 12:53:00
9:53 AM,64.0,55.9,75,30.25,10.0,West,3.5,-,N/A,,Mostly Cloudy,270,2012-12-05 14:53:00
10:53 AM,70.0,54.0,57,30.23,10.0,WNW,4.6,-,N/A,,Mostly Cloudy,300,2012-12-05 15:53:00
11:53 AM,72.0,53.1,51,30.20,10.0,NW,3.5,-,N/A,,Mostly Cloudy,320,2012-12-05 16:53:00
12:53 PM,73.9,52.0,46,30.17,10.0,WNW,3.5,-,N/A,,Mostly Cloudy,290,2012-12-05 17:53:00
1:53 PM,77.0,48.9,37,30.14,10.0,Variable,3.5,-,N/A,,Mostly Cloudy,0,2012-12-05 18:53:00
2:53 PM,77.0,48.0,36,30.11,10.0,NNE,3.5,-,N/A,,Scattered Clouds,30,2012-12-05 19:53:00
3:53 PM,75.9,48.0,37,30.10,10.0,North,4.6,-,N/A,,Scattered Clouds,350,2012-12-05 20:53:00
4:53 PM,73.0,50.0,44,30.11,10.0,North,3.5,-,N/A,,Scattered Clouds,360,2012-12-05 21:53:00
5:53 PM,66.9,54.0,63,30.12,10.0,SSE,5.8,-,N/A,,Scattered Clouds,150,2012-12-05 22:53:00
6:53 PM,63.0,53.1,70,30.13,10.0,SSE,3.5,-,N/A,,Scattered Clouds,160,2012-12-05 23:53:00
7:53 PM,60.1,53.1,78,30.13,10.0,Calm,Calm,-,N/A,,Scattered Clouds,0,2012-12-06 00:53:00
8:53 PM,57.0,53.1,87,30.14,10.0,Calm,Calm,-,N/A,,Mostly Cloudy,0,2012-12-06 01:53:00
9:53 PM,60.1,53.1,78,30.14,10.0,Calm,Calm,-,N/A,,Overcast,0,2012-12-06 02:53:00
10:53 PM,57.9,54.0,87,30.14,10.0,Calm,Calm,-,N/A,,Mostly Cloudy,0,2012-12-06 03:53:00
11:53 PM,57.9,55.0,90,30.13,10.0,North,3.5,-,N/A,,Mostly Cloudy,360,2012-12-06 04:53:00